Regional Weather Roundup
Issued by NWS

Home | Current Version | Previous Version | Graphics & Text | Print | Product List | Glossary On
Versions: 1 2 3 4 5 6 7 8 9 10 11 12 13 14 15 16 17 18 19 20 21 22 23 24 25 26 27 28 29 30 31 32 33 34 35 36 37 38 39 40 41 42 43 44 45 46 47 48 49 50
000
ASUS43 KMKX 011800
RWRWI

WISCONSIN REGIONAL WEATHER ROUNDUP
NATIONAL WEATHER SERVICE MILWAUKEE/SULLIVAN WI
100 PM CDT WED JUL 01 2015

NOTE: "FAIR" INDICATES FEW OR NO CLOUDS BELOW 12,000 FEET WITH NO
SIGNIFICANT WEATHER AND/OR OBSTRUCTIONS TO VISIBILITY.

WIZ001-002-006>008-014>016-023>028-011900-
NORTHWEST WISCONSIN

CITY           SKY/WX    TMP DP  RH WIND       PRES   REMARKS
SUPERIOR ARPT  FAIR      68  58  68 NE5       30.02S
ASHLAND        FAIR      68  51  54 CALM      30.03S
6HR MIN TEMP:  47; 6HR MAX TEMP:  69;

HAYWARD        FAIR      69  48  47 N6        30.03S
6HR MIN TEMP:  46; 6HR MAX TEMP:  69;

SIREN          FAIR      70  47  44 SE3       30.03S
CUMBERLAND     FAIR      64  45  48 CALM      30.03S
RICE LAKE      FAIR      66  46  48 CALM      30.04S
CHETEK         FAIR      65  48  52 CALM      30.03S
LADYSMITH      FAIR      66  47  50 CALM      30.04F
EAU CLAIRE     NOT AVBL
MENOMONIE      FAIR      66  46  48 E3        30.03S
NEW RICHMOND   FAIR      68  47  47 E3        30.02F
OSCEOLA        FAIR      69  48  47 SE3       30.04F
$$

WIZ003>005-009-010-017-018-011900-
NORTH CENTRAL WISCONSIN

CITY           SKY/WX    TMP DP  RH WIND       PRES   REMARKS
MANITOWISH WTR FAIR      63  46  52 N6        30.03S
ARBOR VITAE    SUNNY     64  44  49 N9        30.03S
WOODRUFF       SUNNY     64  44  49 N9        30.03S
RHINELANDER    SUNNY     65  43  44 VRB5      30.03S
6HR MIN TEMP:  47; 6HR MAX TEMP:  65;

EAGLE RIVER    MOSUNNY   64  40  42 E7        30.02F
LAND O LAKES   FAIR      63  43  48 N13       30.04S
PHILLIPS       FAIR      65  46  50 N7        30.02F
TOMAHAWK       SUNNY     64  45  49 N3        30.03F
MEDFORD        FAIR      65  46  48 NE9       30.02S
MERRILL        SUNNY     65  46  51 NE6       30.02S
$$

WIZ029-030-035-036-043>047-011900-
CENTRAL WISCONSIN

CITY           SKY/WX    TMP DP  RH WIND       PRES   REMARKS
WAUSAU         SUNNY     68  43  40 N7        29.99F
6HR MIN TEMP:  49; 6HR MAX TEMP:  68;

MOSINEE        NOT AVBL
MARSHFIELD     FAIR      66  44  45 N5        30.02S
6HR MIN TEMP:  50; 6HR MAX TEMP:  67;

STEVENS POINT  FAIR      65  42  44 N8        30.01S
WAUPACA        PTSUNNY   68  46  45 N8        30.00S
WAUTOMA        SUNNY     68  45  42 N5        30.00S
WISC RAPIDS    FAIR      68  42  38 NE6       30.02S
6HR MIN TEMP:  52; 6HR MAX TEMP:  68;

CAMP DOUGLAS   NOT AVBL
$$

WIZ011>013-019>022-031-037>040-048>050-011900-
NORTHEAST WISCONSIN

CITY           SKY/WX    TMP DP  RH WIND       PRES   REMARKS
ANTIGO         MOSUNNY   64  44  47 N10       30.02S
SHAWANO        MOSUNNY   67  46  47 NE6       30.00S
OCONTO         CLOUDY    59  50  72 W3        30.01R
STURGEON BAY   CLOUDY    57  48  72 NW6       30.03R
6HR MIN TEMP:  52; 6HR MAX TEMP:  57;

GREEN BAY      PTSUNNY   63  51  65 NE8       30.00F
6HR MIN TEMP:  51; 6HR MAX TEMP:  64;

MANITOWOC      NOT AVBL
APPLETON       MOSUNNY   63  48  59 N9        30.00S
CLINTONVILLE   PTSUNNY   64  45  48 N6        30.00R
OSHKOSH        PTSUNNY   64  51  62 CALM      29.99S
6HR MIN TEMP:  53; 6HR MAX TEMP:  65;

$$

WIZ032>034-041-042-053>061-011900-
SOUTHWEST WISCONSIN

CITY           SKY/WX    TMP DP  RH WIND       PRES   REMARKS
LA CROSSE      FAIR      69  49  48 CALM      30.00F
6HR MIN TEMP:  56; 6HR MAX TEMP:  69;

SPARTA         FAIR      66  44  45 NE5       30.02S
VIROQUA        FAIR      64  47  53 E8        30.01F
BOSCOBEL       FAIR      67  50  54 NE3       29.99F
6HR MIN TEMP:  55; 6HR MAX TEMP:  71;

PRAIRIE DU CHI FAIR      65  44  45 NE5       29.99R
PLATTEVILLE    FAIR      68  56  65 NE8       29.98F
$$

WIZ056-057-062-063-064-067-068-011900-
SOUTH CENTRAL WISCONSIN

CITY           SKY/WX    TMP DP  RH WIND       PRES   REMARKS
REEDSBURG      FAIR      65  48  54 N6        30.00S
BARABOO/DELLS  FAIR      66  44  44 NW6       30.00S
LONE ROCK      NOT AVBL
MINERAL POINT  FAIR      68  48  49 NE8       29.98F
MADISON        PTSUNNY   67  47  48 N9        29.98F
6HR MIN TEMP:  56; 6HR MAX TEMP:  69;

MIDDLETON      FAIR      69  45  42 N6        30.00S
WATERTOWN      MOSUNNY   66  51  58 N6        29.99R
MONROE         FAIR      64  54  68 N9        29.98S
JANESVILLE     MOSUNNY   70  48  46 NW8       29.97F
$$

WIZ051-052-058>065-066-070>072-011900-
SOUTHEAST WISCONSIN

CITY           SKY/WX    TMP DP  RH WIND       PRES   REMARKS
MILWAUKEE      PTSUNNY   62  50  64 E13       29.99R
6HR MIN TEMP:  55; 6HR MAX TEMP:  64;

WAUKESHA       MOSUNNY   66  50  55 N6        29.99S
MILWAUKEE/TIMM PTSUNNY   63  48  59 E8        29.99S
RACINE         SUNNY     62  50  64 E13       30.00S
6HR MIN TEMP:  55; 6HR MAX TEMP:  64;

BURLINGTON     SUNNY     66  49  53 CALM      29.97F
KENOSHA        SUNNY     65  53  65 E10       29.99S
6HR MIN TEMP:  56; 6HR MAX TEMP:  66;

FOND DU LAC    PTSUNNY   66  53  63 NE8       30.00R
6HR MIN TEMP:  53; 6HR MAX TEMP:  66;

SHEBOYGAN      CLOUDY    60  52  74 VRB7      30.00R
6HR MIN TEMP:  52; 6HR MAX TEMP:  62;

WEST BEND      CLOUDY    63  50  63 CALM      29.99S
JUNEAU         PTSUNNY   64  52  64 NW3       30.00S
$$

LSZ147-162-011900-
LAKE SUPERIOR

STATION/POSITION TIME  TEMP    WIND        PRES    WAVE
                       AIR SEA DIR/SP/G            HT/PER
                 (UTC) (F)     (DEG/KT/KT) (MB)    (FT/S)
W MID LAKE BUOY  1650   46 39  170/  4/  4 1017.9R   1
DEVILS ISLAND    1700   58      70/  3/  4 1017.4R
SAXON HARBOR     1700   60        CALM     1017.3R
$$

LMZ867-665-643>646-011900-
LAKE MICHIGAN

STATION/POSITION TIME  TEMP    WIND        PRES    WAVE
                       AIR SEA DIR/SP/G            HT/PER
                 (UTC) (F)     (DEG/KT/KT) (MB)    (FT/S)
CHAMBERS ISLAND  1700   60      10/  4/  6 1015.6S
S GREEN BAY BUOY 1730   56 68  300/  6/  8 1017.6R
N MID LAKE BUOY  1650   46 41  320/  6/  8 1015.2R   2/ 4
NORTHPORT PIER   1700   56     340/ 10/ 15 1015.2S
SISTER BAY       1714   60      10/ 12/ 16   N/A
ALGOMA LAKESHORE 1640          330/ 10/ 14   N/A
KEWAUNEE LAKESHO 1700   56     350/  5/  8 1015.2R
SHEBOYGAN LAKESH 1700   53      70/ 12/ 13 1016.3R
PORT WASHINGTON  1740   59      60/  7/  9 1016.6R
ATWATER BUOY     1700   56     110/ 10/ 10 1017.0R
MILWAUKEE LAKESH 1700   57      90/  8/ 10   N/A
KENOSHA   LAKESH 1700   56     100/  8/ 10 1015.6S
$$

TC  - TEMPERATURE IN CELSIUS
VSB - VISIBILITY IN STATUTE MILES
WCI - WIND CHILL INDEX
HX  - HEAT INDEX




USA.gov is the U.S. government's official web portal to all federal, state and local government web resources and services.